Skip Page Navigation
NASA JPL Caltech
NASA Logo - Jet Propulsion Laboratory + View the NASA Portal
+ Near-Earth Object (NEO) Program
Search JPL
JPL Home Earth Solar System Stars & Galaxies Technology
JPL Solar System Dynamics
BODIES ORBITS EPHEMERIDES TOOLS PHYSICAL DATA DISCOVERY FAQ SITE MAP
JPL Small-Body Database Browser
Search: [ help ]  
13530 Ninnemann (1991 RS2)
Classification: Main-belt Asteroid          SPK-ID: 2013530
Ephemeris | Orbit Diagram | Orbital Elements | Physical Parameters | Discovery Circumstances | Close-Approach Data ]

[ show orbit diagram ]
Orbital Elements at Epoch 2457000.5 (2014-Dec-09.0) TDB
Reference: JPL 14 (heliocentric ecliptic J2000)
 Element Value Uncertainty (1-sigma)   Units 
e .06453255278502665 5.1242e-08  
a 2.305753905853223 1.5838e-08 AU
q 2.156957720214468 1.1272e-07 AU
i 6.482589130356661 8.5098e-06 deg
node 210.0933534573639 4.6849e-05 deg
peri 243.161040588024 8.4816e-05 deg
M 143.7003814170769 7.0899e-05 deg
tp 2456490.026412092449
(2013-Jul-16.52641209)
0.0002516 JED
period 1278.844842543193
3.50
1.3176e-05
3.607e-08
d
yr
n .2815040480470491 2.9004e-09 deg/d
Q 2.454550091491977 1.686e-08 AU
  Orbit Determination Parameters
   # obs. used (total)      1048  
   data-arc span      8332 days (22.81 yr)  
   first obs. used      1991-09-09  
   last obs. used      2014-07-02  
   planetary ephem.      DE431  
   SB-pert. ephem.      SB431-BIG16  
   condition code      0  
   fit RMS      .503  
   data source      ORB  
   producer      Otto Matic  
   solution date      2014-Aug-13 14:22:39  

Additional Information
 Earth MOID = 1.18186 AU 
 T_jup = 3.577 
[ show covariance matrix ]

Ephemeris | Orbit Diagram | Orbital Elements | Physical Parameters | Discovery Circumstances | Close-Approach Data ]

Physical Parameter Table
Parameter Symbol Value Units Sigma Reference Notes
absolute magnitude H 13.7 mag n/a MPO263470  

13530 Ninnemann           Discovered 1991 Sept. 9 by L. D. Schmadel and F. Börngen at Tautenburg.
Olaf Ninnemann (b. 1947), German mathematician and leading expert in the field of information and documentation, is especially interested in number theory. He played a key role in the establishment of the Zentralblatt für Mathematik and has been its executive editor since 1978.
NOTE: some special characters may not display properly (any characters within {} are an attempt to place the proper accent above a character)
Reference: 20000523/MPCPages.arcLast Updated: 2013-03-29

[ show close-approach data ]
Alternate Designations
 1991 RS2 = 1997 JX16 
Ephemeris | Orbit Diagram | Orbital Elements | Physical Parameters | Discovery Circumstances | Close-Approach Data ]
ABOUT SSD CREDITS/AWARDS PRIVACY/COPYRIGHT GLOSSARY LINKS
FirstGov 2014-Sep-18 17:44 UT
(server date/time)  
NASA Home Page
Site Manager:   Donald K. Yeomans
Webmaster  Alan B. Chamberlin